START_TIME,STEP,MOV.,M35,t_acc.,PL05,t_acc.,PL06,t_acc.,PL07,t_acc.
1989-08-24T00:00:24.840 ,5,0,0.,4.8,2.,4.8,0.,4.8,0.,4.8
1989-08-24T00:00:29.640 ,5,0,0.,4.8,1.,4.8,0.,4.8,0.,4.8
1989-08-24T00:00:34.440 ,5,0,0.,4.8,1.,4.8,0.,4.8,0.,4.8
1989-08-24T00:00:39.240 ,5,0,0.,4.8,1.,4.8,1.,4.8,0.,4.8
1989-08-24T00:00:44.040 ,5,0,0.,4.8,1.,4.8,0.,4.8,0.,4.8
1989-08-24T00:00:48.840 ,4,0,0.,4.8,0.,4.8,0.,4.8,0.,4.8
1989-08-24T00:00:53.640 ,4,0,0.,4.8,0.,4.8,0.,4.8,0.,4.8
1989-08-24T00:00:58.440 ,4,0,0.,4.8,0.,4.8,0.,4.8,0.,4.8
1989-08-24T00:01:03.240 ,4,0,0.,4.8,0.,4.8,0.,4.8,0.,4.8
1989-08-24T00:01:08.040 ,4,0,0.,4.8,0.,4.8,0.,4.8,0.,4.8
1989-08-24T00:01:12.840 ,4,0,0.,4.8,1.,4.8,0.,4.8,0.,4.8
1989-08-24T00:01:17.640 ,4,0,0.,4.8,0.,4.8,0.,4.8,0.,4.8
1989-08-24T00:01:22.440 ,4,0,0.,4.8,1.,4.8,0.,4.8,0.,4.8
1989-08-24T00:01:27.240 ,4,0,0.,4.8,0.,4.8,0.,4.8,0.,4.8
1989-08-24T00:01:32.040 ,4,0,0.,4.8,0.,4.8,0.,4.8,0.,4.8
1989-08-24T00:01:36.840 ,3,0,0.,4.8,1.,4.8,0.,4.8,0.,4.8
1989-08-24T00:01:41.640 ,3,0,0.,4.8,1.,4.8,0.,4.8,0.,4.8
1989-08-24T00:01:46.440 ,3,0,0.,4.8,0.,4.8,0.,4.8,0.,4.8
1989-08-24T00:01:51.240 ,3,0,0.,4.8,2.,4.8,0.,4.8,0.,4.8
1989-08-24T00:01:56.040 ,3,0,0.,4.8,0.,4.8,0.,4.8,0.,4.8
1989-08-24T00:02:00.840 ,3,0,0.,4.8,1.,4.8,0.,4.8,0.,4.8
1989-08-24T00:02:05.640 ,3,0,0.,4.8,0.,4.8,0.,4.8,0.,4.8
1989-08-24T00:02:10.440 ,3,0,0.,4.8,2.,4.8,0.,4.8,0.,4.8
1989-08-24T00:02:15.240 ,3,0,0.,4.8,0.,4.8,0.,4.8,0.,4.8
1989-08-24T00:02:20.040 ,3,0,0.,4.8,1.,4.8,0.,4.8,0.,4.8
1989-08-24T00:02:24.840 ,2,0,0.,4.8,0.,4.8,0.,4.8,0.,4.8
1989-08-24T00:02:29.640 ,2,0,0.,4.8,1.,4.8,0.,4.8,0.,4.8
1989-08-24T00:02:34.440 ,2,0,0.,4.8,0.,4.8,1.,4.8,0.,4.8
1989-08-24T00:02:39.240 ,2,0,0.,4.8,0.,4.8,0.,4.8,0.,4.8
1989-08-24T00:02:44.040 ,2,0,0.,4.8,1.,4.8,0.,4.8,0.,4.8
1989-08-24T00:02:48.840 ,2,0,0.,4.8,0.,4.8,0.,4.8,0.,4.8
1989-08-24T00:02:53.640 ,2,0,0.,4.8,0.,4.8,0.,4.8,0.,4.8
1989-08-24T00:02:58.440 ,2,0,0.,4.8,0.,4.8,0.,4.8,0.,4.8
1989-08-24T00:03:03.240 ,2,0,0.,4.8,1.,4.8,0.,4.8,0.,4.8
1989-08-24T00:03:08.040 ,2,0,0.,4.8,1.,4.8,0.,4.8,0.,4.8
1989-08-24T00:03:12.840 ,1,0,0.,4.8,0.,4.8,0.,4.8,0.,4.8
1989-08-24T00:03:17.640 ,1,0,0.,4.8,2.,4.8,0.,4.8,1.,4.8
1989-08-24T00:03:22.440 ,1,0,0.,4.8,0.,4.8,0.,4.8,0.,4.8
1989-08-24T00:03:27.240 ,1,0,0.,4.8,0.,4.8,1.,4.8,0.,4.8
1989-08-24T00:03:32.040 ,1,0,0.,4.8,1.,4.8,0.,4.8,0.,4.8
1989-08-24T00:03:36.840 ,1,0,0.,4.8,1.,4.8,0.,4.8,0.,4.8
1989-08-24T00:03:41.640 ,1,0,0.,4.8,2.,4.8,1.,4.8,0.,4.8
1989-08-24T00:03:46.440 ,1,0,0.,4.8,1.,4.8,1.,4.8,0.,4.8
1989-08-24T00:03:51.240 ,1,0,0.,4.8,0.,4.8,0.,4.8,0.,4.8
1989-08-24T00:03:56.040 ,1,0,0.,4.8,1.,4.8,0.,4.8,0.,4.8
1989-08-24T00:04:00.840 ,0,0,0.,4.8,0.,4.8,0.,4.8,0.,4.8
1989-08-24T00:04:05.640 ,0,0,0.,4.8,0.,4.8,1.,4.8,0.,4.8
1989-08-24T00:04:10.440 ,0,0,0.,4.8,3.,4.8,0.,4.8,0.,4.8
1989-08-24T00:04:15.240 ,0,0,0.,4.8,0.,4.8,1.,4.8,0.,4.8
1989-08-24T00:04:20.040 ,0,0,0.,4.8,0.,4.8,0.,4.8,0.,4.8
1989-08-24T00:04:24.840 ,0,0,0.,4.8,1.,4.8,0.,4.8,0.,4.8
1989-08-24T00:04:29.640 ,0,0,0.,4.8,0.,4.8,0.,4.8,0.,4.8
1989-08-24T00:04:34.440 ,0,0,0.,4.8,0.,4.8,0.,4.8,0.,4.8
1989-08-24T00:04:39.240 ,0,0,0.,4.8,1.,4.8,0.,4.8,0.,4.8
1989-08-24T00:04:44.040 ,0,0,0.,4.8,3.,4.8,0.,4.8,0.,4.8
1989-08-24T00:04:48.840 ,0,0,0.,4.8,1.,4.8,0.,4.8,0.,4.8
1989-08-24T00:04:53.640 ,0,0,0.,4.8,0.,4.8,0.,4.8,0.,4.8
1989-08-24T00:04:58.440 ,0,0,0.,4.8,0.,4.8,0.,4.8,0.,4.8
1989-08-24T00:05:03.240 ,0,0,0.,4.8,0.,4.8,1.,4.8,0.,4.8
1989-08-24T00:05:08.040 ,0,0,0.,4.8,0.,4.8,0.,4.8,0.,4.8
1989-08-24T00:05:12.840 ,0,0,0.,4.8,0.,4.8,0.,4.8,0.,4.8
1989-08-24T00:05:17.640 ,0,0,0.,4.8,0.,4.8,1.,4.8,0.,4.8
1989-08-24T00:05:22.440 ,0,0,0.,4.8,1.,4.8,0.,4.8,0.,4.8
1989-08-24T00:05:27.240 ,0,0,0.,4.8,0.,4.8,0.,4.8,0.,4.8
1989-08-24T00:05:32.040 ,0,0,0.,4.8,1.,4.8,0.,4.8,0.,4.8
1989-08-24T00:05:36.840 ,1,0,0.,4.8,0.,4.8,0.,4.8,0.,4.8
1989-08-24T00:05:41.640 ,1,0,0.,4.8,0.,4.8,0.,4.8,0.,4.8
1989-08-24T00:05:46.440 ,1,0,0.,4.8,1.,4.8,0.,4.8,0.,4.8
1989-08-24T00:05:51.240 ,1,0,0.,4.8,0.,4.8,0.,4.8,0.,4.8
1989-08-24T00:05:56.040 ,1,0,0.,4.8,0.,4.8,0.,4.8,0.,4.8
1989-08-24T00:06:00.840 ,1,0,0.,4.8,1.,4.8,0.,4.8,0.,4.8
1989-08-24T00:06:05.640 ,1,0,0.,4.8,1.,4.8,1.,4.8,1.,4.8
1989-08-24T00:06:10.440 ,1,0,0.,4.8,1.,4.8,0.,4.8,0.,4.8
1989-08-24T00:06:15.240 ,1,0,0.,4.8,0.,4.8,0.,4.8,0.,4.8
1989-08-24T00:06:20.040 ,1,0,0.,4.8,2.,4.8,0.,4.8,0.,4.8
1989-08-24T00:06:24.840 ,2,0,0.,4.8,0.,4.8,0.,4.8,0.,4.8
1989-08-24T00:06:29.640 ,2,0,0.,4.8,1.,4.8,0.,4.8,0.,4.8
1989-08-24T00:06:34.440 ,2,0,0.,4.8,2.,4.8,0.,4.8,0.,4.8
1989-08-24T00:06:39.240 ,2,0,0.,4.8,0.,4.8,1.,4.8,0.,4.8
1989-08-24T00:06:44.040 ,2,0,0.,4.8,2.,4.8,0.,4.8,0.,4.8
1989-08-24T00:06:48.840 ,2,0,0.,4.8,0.,4.8,0.,4.8,0.,4.8
1989-08-24T00:06:53.640 ,2,0,0.,4.8,0.,4.8,0.,4.8,0.,4.8
1989-08-24T00:06:58.440 ,2,0,0.,4.8,0.,4.8,0.,4.8,0.,4.8
1989-08-24T00:07:03.240 ,2,0,0.,4.8,0.,4.8,0.,4.8,0.,4.8
1989-08-24T00:07:08.040 ,2,0,0.,4.8,0.,4.8,0.,4.8,0.,4.8
1989-08-24T00:07:12.840 ,3,0,0.,4.8,0.,4.8,0.,4.8,0.,4.8
1989-08-24T00:07:17.640 ,3,0,0.,4.8,1.,4.8,0.,4.8,0.,4.8
1989-08-24T00:07:22.440 ,3,0,0.,4.8,0.,4.8,0.,4.8,0.,4.8
1989-08-24T00:07:27.240 ,3,0,0.,4.8,0.,4.8,0.,4.8,0.,4.8
1989-08-24T00:07:32.040 ,3,0,0.,4.8,0.,4.8,1.,4.8,0.,4.8
1989-08-24T00:07:36.840 ,3,0,0.,4.8,0.,4.8,0.,4.8,0.,4.8
1989-08-24T00:07:41.640 ,3,0,0.,4.8,0.,4.8,0.,4.8,0.,4.8
1989-08-24T00:07:46.440 ,3,0,0.,4.8,0.,4.8,0.,4.8,1.,4.8
1989-08-24T00:07:51.240 ,3,0,0.,4.8,0.,4.8,0.,4.8,0.,4.8
1989-08-24T00:07:56.040 ,3,0,0.,4.8,1.,4.8,0.,4.8,0.,4.8
1989-08-24T00:08:00.840 ,4,0,0.,4.8,1.,4.8,0.,4.8,0.,4.8
1989-08-24T00:08:05.640 ,4,0,0.,4.8,2.,4.8,0.,4.8,0.,4.8
1989-08-24T00:08:10.440 ,4,0,0.,4.8,0.,4.8,0.,4.8,0.,4.8
1989-08-24T00:08:15.240 ,4,0,0.,4.8,0.,4.8,0.,4.8,1.,4.8
1989-08-24T00:08:20.040 ,4,0,0.,4.8,0.,4.8,0.,4.8,0.,4.8
1989-08-24T00:08:24.840 ,4,0,0.,4.8,0.,4.8,0.,4.8,0.,4.8
1989-08-24T00:08:29.640 ,4,0,0.,4.8,1.,4.8,0.,4.8,0.,4.8
1989-08-24T00:08:34.440 ,4,0,0.,4.8,1.,4.8,0.,4.8,0.,4.8
1989-08-24T00:08:39.240 ,4,0,0.,4.8,0.,4.8,0.,4.8,0.,4.8
1989-08-24T00:08:44.040 ,4,0,0.,4.8,0.,4.8,0.,4.8,0.,4.8
1989-08-24T00:08:48.840 ,5,0,0.,4.8,1.,4.8,1.,4.8,0.,4.8
1989-08-24T00:08:53.640 ,5,0,0.,4.8,1.,4.8,0.,4.8,0.,4.8
1989-08-24T00:08:58.440 ,5,0,0.,4.8,1.,4.8,0.,4.8,0.,4.8
1989-08-24T00:09:03.240 ,5,0,0.,4.8,0.,4.8,1.,4.8,0.,4.8
1989-08-24T00:09:08.040 ,5,0,0.,4.8,0.,4.8,0.,4.8,1.,4.8
1989-08-24T00:09:12.840 ,5,0,0.,4.8,1.,4.8,0.,4.8,0.,4.8
1989-08-24T00:09:17.640 ,5,0,0.,4.8,0.,4.8,0.,4.8,0.,4.8
1989-08-24T00:09:22.440 ,5,0,0.,4.8,0.,4.8,0.,4.8,0.,4.8
1989-08-24T00:09:27.240 ,5,0,0.,4.8,0.,4.8,0.,4.8,0.,4.8
1989-08-24T00:09:32.040 ,5,0,0.,4.8,0.,4.8,0.,4.8,0.,4.8
1989-08-24T00:09:36.840 ,6,0,0.,4.8,0.,4.8,0.,4.8,0.,4.8
1989-08-24T00:09:41.640 ,6,0,0.,4.8,0.,4.8,0.,4.8,0.,4.8
1989-08-24T00:09:46.440 ,6,0,0.,4.8,0.,4.8,0.,4.8,0.,4.8
1989-08-24T00:09:51.240 ,6,0,0.,4.8,1.,4.8,0.,4.8,0.,4.8
1989-08-24T00:09:56.040 ,6,0,0.,4.8,0.,4.8,0.,4.8,1.,4.8
1989-08-24T00:10:00.840 ,6,0,0.,4.8,0.,4.8,0.,4.8,0.,4.8
1989-08-24T00:10:05.640 ,6,0,0.,4.8,0.,4.8,0.,4.8,0.,4.8
1989-08-24T00:10:10.440 ,6,0,0.,4.8,1.,4.8,0.,4.8,0.,4.8
1989-08-24T00:10:15.240 ,6,0,0.,4.8,0.,4.8,0.,4.8,0.,4.8
1989-08-24T00:10:20.040 ,6,0,0.,4.8,1.,4.8,0.,4.8,0.,4.8
1989-08-24T00:10:24.840 ,7,0,0.,4.8,1.,4.8,0.,4.8,0.,4.8
1989-08-24T00:10:29.640 ,7,0,0.,4.8,0.,4.8,0.,4.8,0.,4.8
1989-08-24T00:10:34.440 ,7,0,0.,4.8,0.,4.8,0.,4.8,1.,4.8
1989-08-24T00:10:39.240 ,7,0,0.,4.8,0.,4.8,0.,4.8,1.,4.8
1989-08-24T00:10:44.040 ,7,0,0.,4.8,0.,4.8,0.,4.8,0.,4.8
1989-08-24T00:10:48.840 ,7,0,0.,4.8,0.,4.8,0.,4.8,0.,4.8
1989-08-24T00:10:53.640 ,7,0,0.,4.8,0.,4.8,0.,4.8,0.,4.8
1989-08-24T00:10:58.440 ,7,0,0.,4.8,0.,4.8,0.,4.8,0.,4.8
1989-08-24T00:11:03.240 ,7,0,0.,4.8,3.,4.8,1.,4.8,0.,4.8
1989-08-24T00:11:08.040 ,7,0,0.,4.8,0.,4.8,0.,4.8,1.,4.8
1989-08-24T00:11:12.840 ,7,0,0.,4.8,0.,4.8,0.,4.8,0.,4.8
1989-08-24T00:11:17.640 ,7,0,0.,4.8,0.,4.8,0.,4.8,0.,4.8
1989-08-24T00:11:22.440 ,7,0,0.,4.8,0.,4.8,0.,4.8,0.,4.8
1989-08-24T00:11:27.240 ,7,0,0.,4.8,0.,4.8,0.,4.8,0.,4.8
1989-08-24T00:11:32.040 ,7,0,0.,4.8,1.,4.8,0.,4.8,0.,4.8
1989-08-24T00:11:36.840 ,7,0,0.,4.8,0.,4.8,1.,4.8,0.,4.8
1989-08-24T00:11:41.640 ,7,0,0.,4.8,1.,4.8,0.,4.8,0.,4.8
1989-08-24T00:11:46.440 ,7,0,0.,4.8,0.,4.8,0.,4.8,0.,4.8
1989-08-24T00:11:51.240 ,7,0,0.,4.8,0.,4.8,0.,4.8,0.,4.8
1989-08-24T00:11:56.040 ,7,0,0.,4.8,0.,4.8,0.,4.8,0.,4.8
1989-08-24T00:12:00.840 ,6,0,0.,4.8,1.,4.8,0.,4.8,0.,4.8
1989-08-24T00:12:05.640 ,6,0,0.,4.8,0.,4.8,1.,4.8,0.,4.8
1989-08-24T00:12:10.440 ,6,0,0.,4.8,0.,4.8,0.,4.8,0.,4.8
1989-08-24T00:12:15.240 ,6,0,0.,4.8,0.,4.8,0.,4.8,0.,4.8
1989-08-24T00:12:20.040 ,6,0,0.,4.8,0.,4.8,0.,4.8,0.,4.8
1989-08-24T00:12:24.840 ,6,0,0.,4.8,0.,4.8,0.,4.8,0.,4.8
1989-08-24T00:12:29.640 ,6,0,0.,4.8,0.,4.8,0.,4.8,0.,4.8
1989-08-24T00:12:34.440 ,6,0,0.,4.8,2.,4.8,0.,4.8,0.,4.8
1989-08-24T00:12:39.240 ,6,0,0.,4.8,0.,4.8,0.,4.8,0.,4.8
1989-08-24T00:12:44.040 ,6,0,0.,4.8,0.,4.8,0.,4.8,1.,4.8
1989-08-24T00:12:48.840 ,5,0,0.,4.8,1.,4.8,0.,4.8,0.,4.8
1989-08-24T00:12:53.640 ,5,0,0.,4.8,0.,4.8,0.,4.8,0.,4.8
1989-08-24T00:12:58.440 ,5,0,0.,4.8,1.,4.8,0.,4.8,0.,4.8
1989-08-24T00:13:03.240 ,5,0,0.,4.8,0.,4.8,0.,4.8,0.,4.8
1989-08-24T00:13:08.040 ,5,0,0.,4.8,0.,4.8,1.,4.8,0.,4.8
1989-08-24T00:13:12.840 ,5,0,0.,4.8,0.,4.8,0.,4.8,0.,4.8
1989-08-24T00:13:17.640 ,5,0,0.,4.8,0.,4.8,0.,4.8,0.,4.8
1989-08-24T00:13:22.440 ,5,0,0.,4.8,0.,4.8,0.,4.8,0.,4.8
1989-08-24T00:13:27.240 ,5,0,0.,4.8,0.,4.8,0.,4.8,0.,4.8
1989-08-24T00:13:32.040 ,5,0,0.,4.8,0.,4.8,0.,4.8,0.,4.8
1989-08-24T00:13:36.840 ,4,0,0.,4.8,0.,4.8,0.,4.8,0.,4.8
1989-08-24T00:13:41.640 ,4,0,0.,4.8,0.,4.8,0.,4.8,0.,4.8
1989-08-24T00:13:46.440 ,4,0,0.,4.8,2.,4.8,0.,4.8,0.,4.8
1989-08-24T00:13:51.240 ,4,0,0.,4.8,1.,4.8,0.,4.8,0.,4.8
1989-08-24T00:13:56.040 ,4,0,0.,4.8,0.,4.8,0.,4.8,0.,4.8
1989-08-24T00:14:00.840 ,4,0,0.,4.8,1.,4.8,0.,4.8,0.,4.8
1989-08-24T00:14:05.640 ,4,0,0.,4.8,0.,4.8,0.,4.8,0.,4.8
1989-08-24T00:14:10.440 ,4,0,0.,4.8,0.,4.8,0.,4.8,0.,4.8
1989-08-24T00:14:15.240 ,4,0,0.,4.8,1.,4.8,1.,4.8,0.,4.8
1989-08-24T00:14:20.040 ,4,0,0.,4.8,0.,4.8,0.,4.8,0.,4.8
1989-08-24T00:14:24.840 ,3,0,0.,4.8,0.,4.8,0.,4.8,0.,4.8
1989-08-24T00:14:29.640 ,3,0,0.,4.8,0.,4.8,0.,4.8,0.,4.8
1989-08-24T00:14:34.440 ,3,0,0.,4.8,1.,4.8,0.,4.8,0.,4.8
1989-08-24T00:14:39.240 ,3,0,0.,4.8,0.,4.8,0.,4.8,0.,4.8
1989-08-24T00:14:44.040 ,3,0,0.,4.8,1.,4.8,0.,4.8,0.,4.8
1989-08-24T00:14:48.840 ,3,0,0.,4.8,2.,4.8,0.,4.8,0.,4.8
1989-08-24T00:14:53.640 ,3,0,0.,4.8,0.,4.8,0.,4.8,0.,4.8
1989-08-24T00:14:58.440 ,3,0,0.,4.8,1.,4.8,0.,4.8,0.,4.8
1989-08-24T00:15:03.240 ,3,0,0.,4.8,0.,4.8,0.,4.8,0.,4.8
1989-08-24T00:15:08.040 ,3,0,0.,4.8,0.,4.8,0.,4.8,0.,4.8
1989-08-24T00:15:12.840 ,2,0,0.,4.8,1.,4.8,0.,4.8,0.,4.8
1989-08-24T00:15:17.640 ,2,0,0.,4.8,0.,4.8,0.,4.8,0.,4.8
1989-08-24T00:15:22.440 ,2,0,0.,4.8,0.,4.8,0.,4.8,0.,4.8
1989-08-24T00:15:27.240 ,2,0,0.,4.8,0.,4.8,0.,4.8,0.,4.8
1989-08-24T00:15:32.040 ,2,0,0.,4.8,0.,4.8,0.,4.8,0.,4.8
1989-08-24T00:15:36.840 ,2,0,0.,4.8,0.,4.8,0.,4.8,0.,4.8
1989-08-24T00:15:41.640 ,2,0,0.,4.8,1.,4.8,0.,4.8,0.,4.8
1989-08-24T00:15:46.440 ,2,0,0.,4.8,1.,4.8,0.,4.8,0.,4.8
1989-08-24T00:15:51.240 ,2,0,0.,4.8,0.,4.8,0.,4.8,0.,4.8
1989-08-24T00:15:56.040 ,2,0,0.,4.8,1.,4.8,0.,4.8,0.,4.8
1989-08-24T00:16:00.840 ,1,0,0.,4.8,1.,4.8,1.,4.8,0.,4.8
1989-08-24T00:16:05.640 ,1,0,0.,4.8,1.,4.8,0.,4.8,0.,4.8
1989-08-24T00:16:10.440 ,1,0,0.,4.8,1.,4.8,0.,4.8,0.,4.8
1989-08-24T00:16:15.240 ,1,0,0.,4.8,0.,4.8,0.,4.8,0.,4.8
1989-08-24T00:16:20.040 ,1,0,0.,4.8,0.,4.8,0.,4.8,0.,4.8
1989-08-24T00:16:24.840 ,1,0,0.,4.8,0.,4.8,0.,4.8,0.,4.8
1989-08-24T00:16:29.640 ,1,0,0.,4.8,1.,4.8,0.,4.8,0.,4.8
1989-08-24T00:16:34.440 ,1,0,0.,4.8,0.,4.8,0.,4.8,0.,4.8
1989-08-24T00:16:39.240 ,1,0,0.,4.8,1.,4.8,0.,4.8,0.,4.8
1989-08-24T00:16:44.040 ,1,0,0.,4.8,1.,4.8,0.,4.8,0.,4.8
1989-08-24T00:16:48.840 ,0,0,0.,4.8,0.,4.8,0.,4.8,0.,4.8
1989-08-24T00:16:53.640 ,0,0,0.,4.8,0.,4.8,0.,4.8,0.,4.8
1989-08-24T00:16:58.440 ,0,0,0.,4.8,6.,4.8,0.,4.8,0.,4.8
1989-08-24T00:17:03.240 ,0,0,0.,4.8,0.,4.8,0.,4.8,0.,4.8
1989-08-24T00:17:08.040 ,0,0,0.,4.8,0.,4.8,0.,4.8,0.,4.8
1989-08-24T00:17:12.840 ,0,0,0.,4.8,0.,4.8,0.,4.8,0.,4.8
1989-08-24T00:17:17.640 ,0,0,0.,4.8,0.,4.8,0.,4.8,0.,4.8
1989-08-24T00:17:22.440 ,0,0,0.,4.8,1.,4.8,0.,4.8,0.,4.8
1989-08-24T00:17:27.240 ,0,0,0.,4.8,1.,4.8,0.,4.8,0.,4.8
1989-08-24T00:17:32.040 ,0,0,0.,4.8,2.,4.8,0.,4.8,0.,4.8
1989-08-24T00:17:36.840 ,0,0,0.,4.8,1.,4.8,0.,4.8,0.,4.8
1989-08-24T00:17:41.640 ,0,0,0.,4.8,2.,4.8,0.,4.8,0.,4.8
1989-08-24T00:17:46.440 ,0,0,0.,4.8,0.,4.8,0.,4.8,0.,4.8
1989-08-24T00:17:51.240 ,0,0,0.,4.8,0.,4.8,0.,4.8,0.,4.8
1989-08-24T00:17:56.040 ,0,0,0.,4.8,1.,4.8,0.,4.8,0.,4.8
1989-08-24T00:18:00.840 ,0,0,0.,4.8,1.,4.8,0.,4.8,0.,4.8
1989-08-24T00:18:05.640 ,0,0,0.,4.8,0.,4.8,0.,4.8,0.,4.8
1989-08-24T00:18:10.440 ,0,0,0.,4.8,1.,4.8,0.,4.8,0.,4.8
1989-08-24T00:18:15.240 ,0,0,0.,4.8,1.,4.8,0.,4.8,1.,4.8
1989-08-24T00:18:20.040 ,0,0,0.,4.8,1.,4.8,0.,4.8,0.,4.8
1989-08-24T00:18:24.840 ,1,0,0.,4.8,0.,4.8,1.,4.8,0.,4.8
1989-08-24T00:18:29.640 ,1,0,0.,4.8,0.,4.8,0.,4.8,0.,4.8
1989-08-24T00:18:34.440 ,1,0,0.,4.8,0.,4.8,0.,4.8,0.,4.8
1989-08-24T00:18:39.240 ,1,0,0.,4.8,0.,4.8,0.,4.8,0.,4.8
1989-08-24T00:18:44.040 ,1,0,0.,4.8,1.,4.8,0.,4.8,0.,4.8
1989-08-24T00:18:48.840 ,1,0,0.,4.8,0.,4.8,0.,4.8,0.,4.8
1989-08-24T00:18:53.640 ,1,0,0.,4.8,0.,4.8,0.,4.8,0.,4.8
1989-08-24T00:18:58.440 ,1,0,0.,4.8,0.,4.8,0.,4.8,0.,4.8
1989-08-24T00:19:03.240 ,1,0,0.,4.8,0.,4.8,0.,4.8,0.,4.8
1989-08-24T00:19:08.040 ,1,0,0.,4.8,1.,4.8,0.,4.8,0.,4.8
1989-08-24T00:19:12.840 ,2,0,0.,4.8,2.,4.8,0.,4.8,0.,4.8
1989-08-24T00:19:17.640 ,2,0,0.,4.8,1.,4.8,1.,4.8,0.,4.8
1989-08-24T00:19:22.440 ,2,0,0.,4.8,0.,4.8,0.,4.8,0.,4.8
1989-08-24T00:19:27.240 ,2,0,0.,4.8,1.,4.8,0.,4.8,1.,4.8
1989-08-24T00:19:32.040 ,2,0,0.,4.8,0.,4.8,0.,4.8,0.,4.8
1989-08-24T00:19:36.840 ,2,0,0.,4.8,0.,4.8,0.,4.8,0.,4.8
1989-08-24T00:19:41.640 ,2,0,0.,4.8,0.,4.8,0.,4.8,0.,4.8
1989-08-24T00:19:46.440 ,2,0,0.,4.8,0.,4.8,0.,4.8,0.,4.8
1989-08-24T00:19:51.240 ,2,0,0.,4.8,0.,4.8,0.,4.8,0.,4.8
1989-08-24T00:19:56.040 ,2,0,0.,4.8,0.,4.8,0.,4.8,0.,4.8
1989-08-24T00:20:00.840 ,3,0,0.,4.8,0.,4.8,1.,4.8,0.,4.8
1989-08-24T00:20:05.640 ,3,0,0.,4.8,0.,4.8,0.,4.8,0.,4.8
1989-08-24T00:20:10.440 ,3,0,0.,4.8,0.,4.8,0.,4.8,0.,4.8
1989-08-24T00:20:15.240 ,3,0,0.,4.8,0.,4.8,0.,4.8,0.,4.8
1989-08-24T00:20:20.040 ,3,0,0.,4.8,1.,4.8,0.,4.8,0.,4.8
1989-08-24T00:20:24.840 ,3,0,0.,4.8,0.,4.8,1.,4.8,0.,4.8
1989-08-24T00:20:29.640 ,3,0,0.,4.8,0.,4.8,0.,4.8,0.,4.8
1989-08-24T00:20:34.440 ,3,0,0.,4.8,0.,4.8,0.,4.8,0.,4.8
1989-08-24T00:20:39.240 ,3,0,0.,4.8,2.,4.8,0.,4.8,0.,4.8
1989-08-24T00:20:44.040 ,3,0,0.,4.8,0.,4.8,0.,4.8,0.,4.8
1989-08-24T00:20:48.840 ,4,0,0.,4.8,0.,4.8,0.,4.8,0.,4.8
1989-08-24T00:20:53.640 ,4,0,0.,4.8,2.,4.8,0.,4.8,0.,4.8
1989-08-24T00:20:58.440 ,4,0,0.,4.8,0.,4.8,0.,4.8,0.,4.8
1989-08-24T00:21:03.240 ,4,0,0.,4.8,1.,4.8,0.,4.8,0.,4.8
1989-08-24T00:21:08.040 ,4,0,0.,4.8,0.,4.8,0.,4.8,0.,4.8
1989-08-24T00:21:12.840 ,4,0,0.,4.8,0.,4.8,0.,4.8,0.,4.8
1989-08-24T00:21:17.640 ,4,0,0.,4.8,1.,4.8,0.,4.8,1.,4.8
1989-08-24T00:21:22.440 ,4,0,0.,4.8,0.,4.8,0.,4.8,0.,4.8
1989-08-24T00:21:27.240 ,4,0,0.,4.8,0.,4.8,0.,4.8,0.,4.8
1989-08-24T00:21:32.040 ,4,0,0.,4.8,1.,4.8,0.,4.8,0.,4.8
1989-08-24T00:21:36.840 ,5,0,0.,4.8,0.,4.8,0.,4.8,0.,4.8
1989-08-24T00:21:41.640 ,5,0,0.,4.8,0.,4.8,0.,4.8,0.,4.8
1989-08-24T00:21:46.440 ,5,0,0.,4.8,2.,4.8,0.,4.8,0.,4.8
1989-08-24T00:21:51.240 ,5,0,0.,4.8,0.,4.8,0.,4.8,0.,4.8
1989-08-24T00:21:56.040 ,5,0,0.,4.8,0.,4.8,0.,4.8,0.,4.8
1989-08-24T00:22:00.840 ,5,0,0.,4.8,1.,4.8,0.,4.8,0.,4.8
1989-08-24T00:22:05.640 ,5,0,0.,4.8,1.,4.8,0.,4.8,0.,4.8
1989-08-24T00:22:10.440 ,5,0,0.,4.8,1.,4.8,0.,4.8,0.,4.8
1989-08-24T00:22:15.240 ,5,0,0.,4.8,0.,4.8,2.,4.8,0.,4.8
1989-08-24T00:22:20.040 ,5,0,0.,4.8,0.,4.8,0.,4.8,0.,4.8
1989-08-24T00:22:24.840 ,6,0,0.,4.8,3.,4.8,0.,4.8,0.,4.8
1989-08-24T00:22:29.640 ,6,0,0.,4.8,1.,4.8,0.,4.8,0.,4.8
1989-08-24T00:22:34.440 ,6,0,0.,4.8,0.,4.8,0.,4.8,0.,4.8
1989-08-24T00:22:39.240 ,6,0,0.,4.8,0.,4.8,1.,4.8,1.,4.8
1989-08-24T00:22:44.040 ,6,0,0.,4.8,1.,4.8,0.,4.8,0.,4.8
1989-08-24T00:22:48.840 ,6,0,0.,4.8,0.,4.8,0.,4.8,0.,4.8
1989-08-24T00:22:53.640 ,6,0,0.,4.8,1.,4.8,0.,4.8,0.,4.8
1989-08-24T00:22:58.440 ,6,0,0.,4.8,0.,4.8,0.,4.8,0.,4.8
1989-08-24T00:23:03.240 ,6,0,0.,4.8,0.,4.8,0.,4.8,0.,4.8
1989-08-24T00:23:08.040 ,6,0,0.,4.8,0.,4.8,0.,4.8,0.,4.8
1989-08-24T00:23:12.840 ,7,0,0.,4.8,1.,4.8,0.,4.8,0.,4.8
1989-08-24T00:23:17.640 ,7,0,0.,4.8,0.,4.8,0.,4.8,0.,4.8
1989-08-24T00:23:22.440 ,7,0,0.,4.8,0.,4.8,0.,4.8,1.,4.8
1989-08-24T00:23:27.240 ,7,0,0.,4.8,1.,4.8,0.,4.8,0.,4.8
1989-08-24T00:23:32.040 ,7,0,0.,4.8,1.,4.8,0.,4.8,0.,4.8
1989-08-24T00:23:36.840 ,7,0,0.,4.8,1.,4.8,0.,4.8,0.,4.8
1989-08-24T00:23:41.640 ,7,0,0.,4.8,0.,4.8,0.,4.8,0.,4.8
1989-08-24T00:23:46.440 ,7,0,0.,4.8,2.,4.8,0.,4.8,1.,4.8
1989-08-24T00:23:51.240 ,7,0,0.,4.8,1.,4.8,0.,4.8,0.,4.8
1989-08-24T00:23:56.040 ,7,0,0.,4.8,1.,4.8,0.,4.8,0.,4.8
1989-08-24T00:24:00.840 ,7,0,0.,4.8,1.,4.8,0.,4.8,0.,4.8
1989-08-24T00:24:05.640 ,7,0,0.,4.8,0.,4.8,0.,4.8,0.,4.8
1989-08-24T00:24:10.440 ,7,0,0.,4.8,0.,4.8,0.,4.8,1.,4.8
1989-08-24T00:24:15.240 ,7,0,0.,4.8,1.,4.8,0.,4.8,0.,4.8
1989-08-24T00:24:20.040 ,7,0,0.,4.8,1.,4.8,0.,4.8,0.,4.8
1989-08-24T00:24:24.840 ,7,0,0.,4.8,0.,4.8,0.,4.8,1.,4.8
1989-08-24T00:24:29.640 ,7,0,0.,4.8,0.,4.8,0.,4.8,0.,4.8
1989-08-24T00:24:34.440 ,7,0,0.,4.8,1.,4.8,0.,4.8,0.,4.8
1989-08-24T00:24:39.240 ,7,0,0.,4.8,0.,4.8,0.,4.8,0.,4.8
1989-08-24T00:24:44.040 ,7,0,0.,4.8,0.,4.8,0.,4.8,0.,4.8
1989-08-24T00:24:48.840 ,6,0,0.,4.8,0.,4.8,0.,4.8,0.,4.8
1989-08-24T00:24:53.640 ,6,0,0.,4.8,0.,4.8,0.,4.8,1.,4.8
1989-08-24T00:24:58.440 ,6,0,0.,4.8,0.,4.8,0.,4.8,0.,4.8
1989-08-24T00:25:03.240 ,6,0,0.,4.8,0.,4.8,0.,4.8,0.,4.8
1989-08-24T00:25:08.040 ,6,0,0.,4.8,1.,4.8,0.,4.8,0.,4.8
1989-08-24T00:25:12.840 ,6,0,0.,4.8,0.,4.8,0.,4.8,0.,4.8
1989-08-24T00:25:17.640 ,6,0,0.,4.8,1.,4.8,0.,4.8,0.,4.8
1989-08-24T00:25:22.440 ,6,0,0.,4.8,0.,4.8,0.,4.8,0.,4.8
1989-08-24T00:25:27.240 ,6,0,0.,4.8,1.,4.8,0.,4.8,0.,4.8
1989-08-24T00:25:32.040 ,6,0,0.,4.8,0.,4.8,0.,4.8,1.,4.8
1989-08-24T00:25:36.840 ,5,0,0.,4.8,2.,4.8,1.,4.8,0.,4.8
1989-08-24T00:25:41.640 ,5,0,0.,4.8,1.,4.8,0.,4.8,0.,4.8
1989-08-24T00:25:46.440 ,5,0,0.,4.8,0.,4.8,0.,4.8,0.,4.8
1989-08-24T00:25:51.240 ,5,0,0.,4.8,1.,4.8,0.,4.8,0.,4.8
1989-08-24T00:25:56.040 ,5,0,0.,4.8,0.,4.8,0.,4.8,0.,4.8
1989-08-24T00:26:00.840 ,5,0,0.,4.8,0.,4.8,0.,4.8,0.,4.8
1989-08-24T00:26:05.640 ,5,0,0.,4.8,0.,4.8,0.,4.8,0.,4.8
1989-08-24T00:26:10.440 ,5,0,0.,4.8,1.,4.8,0.,4.8,0.,4.8
1989-08-24T00:26:15.240 ,5,0,0.,4.8,0.,4.8,0.,4.8,0.,4.8
1989-08-24T00:26:20.040 ,5,0,0.,4.8,1.,4.8,0.,4.8,0.,4.8
1989-08-24T00:26:24.840 ,4,0,0.,4.8,1.,4.8,0.,4.8,0.,4.8
1989-08-24T00:26:29.640 ,4,0,0.,4.8,2.,4.8,0.,4.8,1.,4.8
1989-08-24T00:26:34.440 ,4,0,0.,4.8,0.,4.8,0.,4.8,0.,4.8
1989-08-24T00:26:39.240 ,4,0,0.,4.8,0.,4.8,0.,4.8,0.,4.8
1989-08-24T00:26:44.040 ,4,0,0.,4.8,0.,4.8,0.,4.8,0.,4.8
1989-08-24T00:26:48.840 ,4,0,0.,4.8,0.,4.8,0.,4.8,0.,4.8
1989-08-24T00:26:53.640 ,4,0,0.,4.8,0.,4.8,0.,4.8,0.,4.8
1989-08-24T00:26:58.440 ,4,0,0.,4.8,1.,4.8,0.,4.8,0.,4.8
1989-08-24T00:27:03.240 ,4,0,0.,4.8,1.,4.8,0.,4.8,0.,4.8
1989-08-24T00:27:08.040 ,4,0,0.,4.8,0.,4.8,0.,4.8,0.,4.8
1989-08-24T00:27:12.840 ,3,0,0.,4.8,0.,4.8,0.,4.8,0.,4.8
1989-08-24T00:27:17.640 ,3,0,0.,4.8,0.,4.8,0.,4.8,0.,4.8
1989-08-24T00:27:22.440 ,3,0,0.,4.8,1.,4.8,0.,4.8,0.,4.8
1989-08-24T00:27:27.240 ,3,0,0.,4.8,2.,4.8,0.,4.8,0.,4.8
1989-08-24T00:27:32.040 ,3,0,0.,4.8,0.,4.8,0.,4.8,0.,4.8
1989-08-24T00:27:36.840 ,3,0,0.,4.8,1.,4.8,1.,4.8,1.,4.8
1989-08-24T00:27:41.640 ,3,0,0.,4.8,0.,4.8,0.,4.8,0.,4.8
1989-08-24T00:27:46.440 ,3,0,0.,4.8,2.,4.8,1.,4.8,0.,4.8
1989-08-24T00:27:51.240 ,3,0,0.,4.8,0.,4.8,0.,4.8,1.,4.8
1989-08-24T00:27:56.040 ,3,0,0.,4.8,0.,4.8,0.,4.8,1.,4.8
1989-08-24T00:28:00.840 ,2,0,0.,4.8,1.,4.8,0.,4.8,0.,4.8
1989-08-24T00:28:05.640 ,2,0,0.,4.8,0.,4.8,0.,4.8,0.,4.8
1989-08-24T00:28:10.440 ,2,0,0.,4.8,1.,4.8,0.,4.8,0.,4.8
1989-08-24T00:28:15.240 ,2,0,0.,4.8,0.,4.8,0.,4.8,0.,4.8
1989-08-24T00:28:20.040 ,2,0,0.,4.8,0.,4.8,0.,4.8,0.,4.8
1989-08-24T00:28:24.840 ,2,0,0.,4.8,0.,4.8,0.,4.8,0.,4.8
1989-08-24T00:28:29.640 ,2,0,0.,4.8,1.,4.8,0.,4.8,0.,4.8
1989-08-24T00:28:34.440 ,2,0,0.,4.8,0.,4.8,0.,4.8,0.,4.8
1989-08-24T00:28:39.240 ,2,0,0.,4.8,0.,4.8,0.,4.8,0.,4.8
1989-08-24T00:28:44.040 ,2,0,0.,4.8,1.,4.8,0.,4.8,0.,4.8
1989-08-24T00:28:48.840 ,1,0,0.,4.8,0.,4.8,0.,4.8,0.,4.8
1989-08-24T00:28:53.640 ,1,0,0.,4.8,1.,4.8,0.,4.8,0.,4.8
1989-08-24T00:28:58.440 ,1,0,0.,4.8,1.,4.8,0.,4.8,0.,4.8
1989-08-24T00:29:03.240 ,1,0,0.,4.8,1.,4.8,1.,4.8,0.,4.8
1989-08-24T00:29:08.040 ,1,0,0.,4.8,0.,4.8,0.,4.8,0.,4.8
1989-08-24T00:29:12.840 ,1,0,0.,4.8,0.,4.8,0.,4.8,0.,4.8
1989-08-24T00:29:17.640 ,1,0,0.,4.8,1.,4.8,0.,4.8,0.,4.8
1989-08-24T00:29:22.440 ,1,0,0.,4.8,2.,4.8,0.,4.8,0.,4.8
1989-08-24T00:29:27.240 ,1,0,0.,4.8,1.,4.8,1.,4.8,0.,4.8
1989-08-24T00:29:32.040 ,1,0,0.,4.8,0.,4.8,0.,4.8,0.,4.8
1989-08-24T00:29:36.840 ,0,0,0.,4.8,0.,4.8,0.,4.8,0.,4.8
1989-08-24T00:29:41.640 ,0,0,0.,4.8,0.,4.8,0.,4.8,0.,4.8
1989-08-24T00:29:46.440 ,0,0,0.,4.8,3.,4.8,0.,4.8,0.,4.8
1989-08-24T00:29:51.240 ,0,0,0.,4.8,0.,4.8,0.,4.8,0.,4.8
1989-08-24T00:29:56.040 ,0,0,0.,4.8,0.,4.8,0.,4.8,0.,4.8
1989-08-24T00:30:00.840 ,0,0,0.,4.8,1.,4.8,0.,4.8,0.,4.8
1989-08-24T00:30:05.640 ,0,0,0.,4.8,1.,4.8,0.,4.8,0.,4.8
1989-08-24T00:30:10.440 ,0,0,0.,4.8,0.,4.8,0.,4.8,0.,4.8
1989-08-24T00:30:15.240 ,0,0,0.,4.8,0.,4.8,1.,4.8,0.,4.8
1989-08-24T00:30:20.040 ,0,0,0.,4.8,0.,4.8,0.,4.8,0.,4.8
1989-08-24T00:30:24.840 ,0,0,0.,4.8,1.,4.8,0.,4.8,0.,4.8
1989-08-24T00:30:29.640 ,0,0,0.,4.8,0.,4.8,1.,4.8,0.,4.8
1989-08-24T00:30:34.440 ,0,0,0.,4.8,0.,4.8,0.,4.8,0.,4.8
1989-08-24T00:30:39.240 ,0,0,0.,4.8,0.,4.8,0.,4.8,0.,4.8
1989-08-24T00:30:44.040 ,0,0,0.,4.8,0.,4.8,1.,4.8,0.,4.8
1989-08-24T00:30:48.840 ,0,0,0.,4.8,1.,4.8,0.,4.8,0.,4.8
1989-08-24T00:30:53.640 ,0,0,0.,4.8,0.,4.8,0.,4.8,0.,4.8
1989-08-24T00:30:58.440 ,0,0,0.,4.8,1.,4.8,0.,4.8,0.,4.8
1989-08-24T00:31:03.240 ,0,0,0.,4.8,0.,4.8,0.,4.8,0.,4.8
1989-08-24T00:31:08.040 ,0,0,0.,4.8,0.,4.8,0.,4.8,2.,4.8
1989-08-24T00:31:12.840 ,1,0,0.,4.8,0.,4.8,0.,4.8,0.,4.8
1989-08-24T00:31:17.640 ,1,0,0.,4.8,0.,4.8,0.,4.8,0.,4.8
1989-08-24T00:31:22.440 ,1,0,0.,4.8,1.,4.8,0.,4.8,0.,4.8
1989-08-24T00:31:27.240 ,1,0,0.,4.8,1.,4.8,0.,4.8,0.,4.8
1989-08-24T00:31:32.040 ,1,0,0.,4.8,1.,4.8,0.,4.8,0.,4.8
1989-08-24T00:31:36.840 ,1,0,0.,4.8,0.,4.8,0.,4.8,0.,4.8
1989-08-24T00:31:41.640 ,1,0,0.,4.8,0.,4.8,0.,4.8,0.,4.8
1989-08-24T00:31:46.440 ,1,0,0.,4.8,1.,4.8,0.,4.8,1.,4.8
1989-08-24T00:31:51.240 ,1,0,0.,4.8,0.,4.8,0.,4.8,1.,4.8
1989-08-24T00:31:56.040 ,1,0,0.,4.8,1.,4.8,0.,4.8,0.,4.8
1989-08-24T00:32:00.840 ,2,0,0.,4.8,1.,4.8,0.,4.8,0.,4.8
1989-08-24T00:32:05.640 ,2,0,0.,4.8,0.,4.8,0.,4.8,0.,4.8
1989-08-24T00:32:10.440 ,2,0,0.,4.8,0.,4.8,0.,4.8,0.,4.8
1989-08-24T00:32:15.240 ,2,0,0.,4.8,0.,4.8,0.,4.8,0.,4.8
1989-08-24T00:32:20.040 ,2,0,0.,4.8,0.,4.8,0.,4.8,0.,4.8
1989-08-24T00:32:24.840 ,2,0,0.,4.8,0.,4.8,0.,4.8,1.,4.8
1989-08-24T00:32:29.640 ,2,0,0.,4.8,0.,4.8,0.,4.8,0.,4.8
1989-08-24T00:32:34.440 ,2,0,0.,4.8,0.,4.8,0.,4.8,0.,4.8
1989-08-24T00:32:39.240 ,2,0,0.,4.8,0.,4.8,0.,4.8,0.,4.8
1989-08-24T00:32:44.040 ,2,0,0.,4.8,1.,4.8,0.,4.8,0.,4.8
1989-08-24T00:32:48.840 ,3,0,0.,4.8,0.,4.8,0.,4.8,0.,4.8
1989-08-24T00:32:53.640 ,3,0,0.,4.8,3.,4.8,0.,4.8,0.,4.8
1989-08-24T00:32:58.440 ,3,0,0.,4.8,1.,4.8,0.,4.8,0.,4.8
1989-08-24T00:33:03.240 ,3,0,0.,4.8,0.,4.8,0.,4.8,0.,4.8
1989-08-24T00:33:08.040 ,3,0,0.,4.8,0.,4.8,0.,4.8,0.,4.8
1989-08-24T00:33:12.840 ,3,0,0.,4.8,1.,4.8,0.,4.8,0.,4.8
1989-08-24T00:33:17.640 ,3,0,0.,4.8,1.,4.8,0.,4.8,0.,4.8